When you browse on this site, cookies collect data to enhance your experience and personalize the content and advertising you see.
Visit our Privacy Policy to learn more. By continuing to use the site, you agree to this use of cookies and data.

Stündliche Wetter Namibe

Heute, 8 August, Samstag

Zeit Temperatur Niederschläge Wind Luftdruck Luftfeuchtigkeit
00:00 +19°C° 0 mm 2 m/S 762 mmHg 89%
01:00 +19°C° 0 mm 2 m/S 761 mmHg 90%
02:00 +18°C° 0 mm 2 m/S 761 mmHg 92%
03:00 +17°C° 0 mm 2 m/S 761 mmHg 93%
04:00 +16°C° 0 mm 2 m/S 761 mmHg 94%
05:00 +17°C° 0 mm 2 m/S 761 mmHg 95%
06:00 +17°C° 0 mm 2 m/S 761 mmHg 96%
07:00 +17°C° 0 mm 3 m/S 762 mmHg 97%
08:00 +19°C° 0 mm 2 m/S 762 mmHg 89%
09:00 +20°C° 0 mm 2 m/S 762 mmHg 82%
10:00 +23°C° 0 mm 2 m/S 762 mmHg 75%
11:00 +24°C° 0 mm 3 m/S 762 mmHg 71%
12:00 +23°C° 0 mm 4 m/S 761 mmHg 66%
13:00 +25°C° 0 mm 5 m/S 761 mmHg 62%
14:00 +25°C° 0 mm 5 m/S 760 mmHg 62%
15:00 +23°C° 0 mm 5 m/S 760 mmHg 62%
16:00 +23°C° 0 mm 5 m/S 760 mmHg 62%
17:00 +21°C° 0 mm 5 m/S 760 mmHg 68%
18:00 +19°C° 0 mm 5 m/S 761 mmHg 74%
19:00 +18°C° 0 mm 4 m/S 761 mmHg 79%
20:00 +16°C° 0 mm 5 m/S 761 mmHg 82%
21:00 +15°C° 0 mm 5 m/S 761 mmHg 84%
22:00 +15°C° 0 mm 5 m/S 762 mmHg 86%
23:00 +14°C° 0 mm 5 m/S 761 mmHg 88%

Morgen, 9 August, Sonntag

Zeit Temperatur Niederschläge Wind Luftdruck Luftfeuchtigkeit
00:00 +14°C° 0 mm 4 m/S 761 mmHg 89%
01:00 +14°C° 0 mm 4 m/S 761 mmHg 90%
02:00 +14°C° 0 mm 3 m/S 761 mmHg 90%
03:00 +13°C° 0 mm 3 m/S 760 mmHg 89%
04:00 +13°C° 0 mm 3 m/S 760 mmHg 88%
05:00 +15°C° 0 mm 2 m/S 760 mmHg 88%
06:00 +15°C° 0 mm 2 m/S 760 mmHg 87%
07:00 +15°C° 0 mm 2 m/S 761 mmHg 87%
08:00 +18°C° 0 mm 2 m/S 761 mmHg 76%
09:00 +20°C° 0 mm 2 m/S 761 mmHg 64%
10:00 +24°C° 0 mm 2 m/S 761 mmHg 52%
11:00 +25°C° 0 mm 3 m/S 760 mmHg 51%
12:00 +26°C° 0 mm 4 m/S 759 mmHg 50%
13:00 +27°C° 0 mm 5 m/S 759 mmHg 49%
14:00 +26°C° 0 mm 5 m/S 758 mmHg 51%
15:00 +25°C° 0 mm 5 m/S 758 mmHg 54%
16:00 +23°C° 0 mm 5 m/S 757 mmHg 56%
17:00 +21°C° 0 mm 5 m/S 758 mmHg 66%
18:00 +19°C° 0 mm 4 m/S 759 mmHg 76%
19:00 +17°C° 0 mm 3 m/S 759 mmHg 85%
20:00 +17°C° 0 mm 3 m/S 759 mmHg 87%
21:00 +16°C° 0 mm 3 m/S 760 mmHg 88%
22:00 +16°C° 0 mm 2 m/S 760 mmHg 90%
23:00 +16°C° 0 mm 2 m/S 760 mmHg 90%

übermorgen, 10 August, Montag

Zeit Temperatur Niederschläge Wind Luftdruck Luftfeuchtigkeit
00:00 +15°C° 0 mm 2 m/S 759 mmHg 89%
01:00 +15°C° 0 mm 2 m/S 759 mmHg 89%
02:00 +15°C° 0 mm 2 m/S 759 mmHg 88%
03:00 +15°C° 0 mm 2 m/S 759 mmHg 87%
04:00 +15°C° 0 mm 2 m/S 759 mmHg 86%
05:00 +16°C° 0 mm 2 m/S 759 mmHg 87%
06:00 +16°C° 0 mm 3 m/S 760 mmHg 88%
07:00 +16°C° 0 mm 3 m/S 760 mmHg 89%
08:00 +19°C° 0 mm 3 m/S 760 mmHg 78%
09:00 +21°C° 0 mm 4 m/S 760 mmHg 68%
10:00 +25°C° 0 mm 4 m/S 760 mmHg 58%
11:00 +25°C° 0 mm 4 m/S 760 mmHg 57%
12:00 +25°C° 0 mm 5 m/S 759 mmHg 56%
13:00 +26°C° 0 mm 5 m/S 758 mmHg 55%
14:00 +25°C° 0 mm 5 m/S 758 mmHg 57%
15:00 +23°C° 0 mm 5 m/S 757 mmHg 59%
16:00 +23°C° 0 mm 5 m/S 757 mmHg 62%
17:00 +21°C° 0 mm 4 m/S 757 mmHg 71%
18:00 +19°C° 0 mm 3 m/S 758 mmHg 80%
19:00 +18°C° 0 mm 2 m/S 759 mmHg 90%
20:00 +17°C° 0 mm 2 m/S 759 mmHg 91%
21:00 +17°C° 0 mm 3 m/S 759 mmHg 92%
22:00 +16°C° 0 mm 3 m/S 760 mmHg 92%
23:00 +16°C° 0 mm 2 m/S 760 mmHg 93%

11 August, Dienstag

Zeit Temperatur Niederschläge Wind Luftdruck Luftfeuchtigkeit
00:00 +15°C° 0 mm 2 m/S 760 mmHg 93%
01:00 +15°C° 0 mm 2 m/S 759 mmHg 94%
02:00 +15°C° 0 mm 2 m/S 759 mmHg 94%
03:00 +16°C° 0 mm 1 m/S 759 mmHg 94%
04:00 +16°C° 0 mm 1 m/S 759 mmHg 93%
05:00 +16°C° 0 mm 1 m/S 759 mmHg 93%
06:00 +16°C° 0 mm 1 m/S 759 mmHg 93%
07:00 +16°C° 0 mm 1 m/S 760 mmHg 93%
08:00 +19°C° 0 mm 2 m/S 760 mmHg 81%
09:00 +21°C° 0 mm 2 m/S 760 mmHg 69%
10:00 +25°C° 0 mm 2 m/S 760 mmHg 57%
11:00 +25°C° 0 mm 3 m/S 759 mmHg 55%
12:00 +26°C° 0 mm 4 m/S 758 mmHg 54%
13:00 +27°C° 0 mm 5 m/S 758 mmHg 52%
14:00 +26°C° 0 mm 5 m/S 757 mmHg 55%
15:00 +25°C° 0 mm 5 m/S 757 mmHg 59%
16:00 +23°C° 0 mm 5 m/S 756 mmHg 62%
17:00 +21°C° 0 mm 4 m/S 757 mmHg 70%
18:00 +20°C° 0 mm 3 m/S 758 mmHg 77%
19:00 +18°C° 0 mm 2 m/S 758 mmHg 85%
20:00 +18°C° 0 mm 2 m/S 759 mmHg 86%
21:00 +17°C° 0 mm 2 m/S 759 mmHg 88%
22:00 +17°C° 0 mm 2 m/S 759 mmHg 89%
23:00 +17°C° 0 mm 2 m/S 759 mmHg 90%

12 August, Mittwoch

Zeit Temperatur Niederschläge Wind Luftdruck Luftfeuchtigkeit
00:00 +17°C° 0 mm 2 m/S 759 mmHg 90%
01:00 +17°C° 0 mm 2 m/S 759 mmHg 90%
02:00 +17°C° 0 mm 2 m/S 759 mmHg 91%
03:00 +17°C° 0 mm 3 m/S 758 mmHg 92%
04:00 +17°C° 0 mm 3 m/S 758 mmHg 93%
05:00 +18°C° 0 mm 4 m/S 759 mmHg 91%
06:00 +18°C° 0 mm 4 m/S 759 mmHg 89%
07:00 +19°C° 0 mm 5 m/S 760 mmHg 87%
08:00 +21°C° 0 mm 4 m/S 760 mmHg 78%
09:00 +22°C° 0 mm 4 m/S 760 mmHg 70%
10:00 +25°C° 0 mm 4 m/S 760 mmHg 61%
11:00 +26°C° 0 mm 4 m/S 759 mmHg 60%
12:00 +26°C° 0 mm 5 m/S 759 mmHg 58%
13:00 +27°C° 0 mm 6 m/S 758 mmHg 57%
14:00 +26°C° 0 mm 6 m/S 758 mmHg 60%
15:00 +24°C° 0 mm 6 m/S 757 mmHg 64%
16:00 +23°C° 0 mm 6 m/S 757 mmHg 67%
17:00 +22°C° 0 mm 4 m/S 758 mmHg 73%
18:00 +21°C° 0 mm 3 m/S 758 mmHg 80%
19:00 +21°C° 0 mm 1 m/S 759 mmHg 86%
20:00 +21°C° 0 mm 1 m/S 760 mmHg 85%
21:00 +21°C° 0 mm 1 m/S 760 mmHg 85%
22:00 +21°C° 0 mm 1 m/S 760 mmHg 84%
23:00 +20°C° 0 mm 1 m/S 760 mmHg 86%

13 August, Donnerstag

Zeit Temperatur Niederschläge Wind Luftdruck Luftfeuchtigkeit
00:00 +20°C° 0 mm 1 m/S 760 mmHg 88%
01:00 +20°C° 0 mm 1 m/S 759 mmHg 90%
02:00 +19°C° 0 mm 1 m/S 759 mmHg 91%
03:00 +18°C° 0 mm 1 m/S 759 mmHg 93%
04:00 +18°C° 0 mm 1 m/S 759 mmHg 95%
05:00 +18°C° 0 mm 1 m/S 759 mmHg 95%
06:00 +18°C° 0 mm 1 m/S 759 mmHg 95%
07:00 +19°C° 0 mm 1 m/S 760 mmHg 95%
08:00 +21°C° 0 mm 1 m/S 760 mmHg 83%
09:00 +23°C° 0 mm 1 m/S 760 mmHg 71%
10:00 +26°C° 0 mm 1 m/S 760 mmHg 60%
11:00 +26°C° 0 mm 3 m/S 759 mmHg 59%
12:00 +27°C° 0 mm 4 m/S 758 mmHg 58%
13:00 +27°C° 0 mm 5 m/S 757 mmHg 57%
14:00 +26°C° 0 mm 5 m/S 757 mmHg 60%
15:00 +25°C° 0 mm 5 m/S 757 mmHg 64%
16:00 +23°C° 0 mm 5 m/S 756 mmHg 68%
17:00 +22°C° 0 mm 4 m/S 757 mmHg 74%
18:00 +21°C° 0 mm 4 m/S 758 mmHg 81%
19:00 +19°C° 0 mm 3 m/S 759 mmHg 88%
20:00 +19°C° 0 mm 2 m/S 759 mmHg 89%
21:00 +18°C° 0 mm 2 m/S 759 mmHg 91%
22:00 +19°C° 0 mm 1 m/S 759 mmHg 93%
23:00 +18°C° 0 mm 1 m/S 759 mmHg 93%
Mehr zeigen